Time,TemperatureF,DewpointF,PressureIn,WindDirection,WindDirectionDegrees,WindSpeedMPH,WindSpeedGustMPH,Humidity,HourlyPrecipIn,Conditions,Clouds,dailyrainin,SoftwareType,DateUTC
2013-02-24 00:00:00,30.2,26.2,29.87,SW,223,1.6,3.5,85,0.00,RA,,0.00,WeatherDisplay:10.37,2013-02-24 05:00:00,
2013-02-24 00:05:00,30.2,26.2,29.87,SSW,199,2.3,3.5,85,0.00,RA,,0.00,WeatherDisplay:10.37,2013-02-24 05:05:00,
2013-02-24 00:10:00,30.2,26.2,29.87,SW,217,3.1,4.0,85,0.00,OVC,,0.00,WeatherDisplay:10.37,2013-02-24 05:10:00,
2013-02-24 00:15:00,30.3,26.3,29.87,SW,226,4.1,5.0,85,0.00,OVC,,0.00,WeatherDisplay:10.37,2013-02-24 05:15:00,
2013-02-24 00:20:00,30.3,26.3,29.87,WSW,240,2.1,3.0,85,0.00,OVC,,0.00,WeatherDisplay:10.37,2013-02-24 05:20:00,
2013-02-24 00:25:00,30.3,26.3,29.87,SW,231,3.4,4.6,85,0.00,OVC,,0.00,WeatherDisplay:10.37,2013-02-24 05:25:00,
2013-02-24 00:30:00,30.3,26.3,29.87,SSW,211,3.0,3.5,85,0.00,OVC,,0.00,WeatherDisplay:10.37,2013-02-24 05:30:00,
2013-02-24 00:35:00,30.3,26.3,29.86,SSW,208,3.1,3.5,85,0.00,OVC,,0.00,WeatherDisplay:10.37,2013-02-24 05:35:00,
2013-02-24 00:40:00,30.3,26.3,29.86,SW,217,2.2,3.5,85,0.00,OVC,,0.00,WeatherDisplay:10.37,2013-02-24 05:40:00,
2013-02-24 00:45:00,30.3,26.6,29.86,South,172,1.7,3.5,86,0.00,OVC,,0.00,WeatherDisplay:10.37,2013-02-24 05:45:00,
2013-02-24 00:50:00,30.3,26.6,29.86,South,181,2.7,4.0,86,0.00,OVC,,0.00,WeatherDisplay:10.37,2013-02-24 05:50:00,
2013-02-24 00:55:00,30.2,26.5,29.86,SSW,201,2.6,3.5,86,0.00,OVC,,0.00,WeatherDisplay:10.37,2013-02-24 05:55:00,
2013-02-24 01:00:00,30.3,26.6,29.86,South,170,2.3,3.5,86,0.00,OVC,,0.00,WeatherDisplay:10.37,2013-02-24 06:00:00,
2013-02-24 01:05:00,30.3,26.6,29.86,SSE,155,1.6,3.5,86,0.00,OVC,,0.00,WeatherDisplay:10.37,2013-02-24 06:05:00,
2013-02-24 01:10:00,30.2,26.2,29.86,SSW,204,1.7,3.5,85,0.00,OVC,,0.00,WeatherDisplay:10.37,2013-02-24 06:10:00,
2013-02-24 01:15:00,30.2,26.2,29.86,SSW,210,1.6,2.3,85,0.00,OVC,,0.00,WeatherDisplay:10.37,2013-02-24 06:15:00,
2013-02-24 01:20:00,30.2,26.2,29.86,SW,222,2.1,3.0,85,0.00,OVC,,0.00,WeatherDisplay:10.37,2013-02-24 06:20:00,
2013-02-24 01:25:00,30.2,26.2,29.86,SW,219,3.1,3.5,85,0.00,OVC,,0.00,WeatherDisplay:10.37,2013-02-24 06:25:00,
2013-02-24 01:30:00,30.2,26.2,29.86,SSW,200,2.3,3.5,85,0.00,OVC,,0.00,WeatherDisplay:10.37,2013-02-24 06:30:00,
2013-02-24 01:35:00,30.2,26.2,29.86,SSW,204,1.8,4.6,85,0.00,OVC,,0.00,WeatherDisplay:10.37,2013-02-24 06:35:00,
2013-02-24 01:40:00,30.2,26.2,29.85,SSW,210,1.9,3.5,85,0.00,OVC,,0.00,WeatherDisplay:10.37,2013-02-24 06:40:00,
2013-02-24 01:45:00,30.2,26.2,29.85,SSW,211,2.9,5.0,85,0.00,OVC,,0.00,WeatherDisplay:10.37,2013-02-24 06:45:00,
2013-02-24 01:50:00,30.2,26.2,29.86,SW,214,3.0,4.0,85,0.00,OVC,,0.00,WeatherDisplay:10.37,2013-02-24 06:50:00,
2013-02-24 01:55:00,30.2,26.2,29.86,SSW,203,2.6,3.5,85,0.00,OVC,,0.00,WeatherDisplay:10.37,2013-02-24 06:55:00,
2013-02-24 02:00:00,30.2,26.2,29.86,SW,215,3.4,5.8,85,0.00,OVC,,0.00,WeatherDisplay:10.37,2013-02-24 07:00:00,
2013-02-24 02:05:00,30.2,26.2,29.85,South,179,2.3,3.5,85,0.00,OVC,,0.00,WeatherDisplay:10.37,2013-02-24 07:05:00,
2013-02-24 02:10:00,30.2,26.2,29.85,SSW,204,3.0,3.5,85,0.00,OVC,,0.00,WeatherDisplay:10.37,2013-02-24 07:10:00,
2013-02-24 02:16:00,30.2,26.2,29.85,South,169,2.1,5.8,85,0.00,OVC,,0.00,WeatherDisplay:10.37,2013-02-24 07:16:00,
2013-02-24 02:21:00,30.2,26.2,29.85,SSW,205,2.5,5.8,85,0.00,OVC,,0.00,WeatherDisplay:10.37,2013-02-24 07:21:00,
2013-02-24 02:26:00,30.2,26.2,29.85,South,188,2.5,4.6,85,0.00,OVC,,0.00,WeatherDisplay:10.37,2013-02-24 07:26:00,
2013-02-24 02:31:00,30.1,26.1,29.85,SSW,202,2.4,3.5,85,0.00,OVC,,0.00,WeatherDisplay:10.37,2013-02-24 07:31:00,
2013-02-24 02:36:00,30.1,26.1,29.85,SSW,212,2.5,3.5,85,0.00,OVC,,0.00,WeatherDisplay:10.37,2013-02-24 07:36:00,
2013-02-24 02:41:00,30.2,26.2,29.85,SW,224,2.5,3.5,85,0.00,OVC,,0.00,WeatherDisplay:10.37,2013-02-24 07:41:00,
2013-02-24 02:46:00,30.2,25.9,29.85,SSW,193,3.9,4.6,84,0.00,OVC,,0.00,WeatherDisplay:10.37,2013-02-24 07:46:00,
2013-02-24 02:51:00,30.2,25.9,29.85,SSW,211,3.5,5.8,84,0.00,OVC,,0.00,WeatherDisplay:10.37,2013-02-24 07:51:00,
2013-02-24 02:56:00,30.2,25.9,29.85,South,169,2.6,3.5,84,0.00,OVC,,0.00,WeatherDisplay:10.37,2013-02-24 07:56:00,
2013-02-24 03:01:00,30.2,25.9,29.85,SSW,207,2.5,3.5,84,0.00,OVC,,0.00,WeatherDisplay:10.37,2013-02-24 08:01:00,
2013-02-24 03:06:00,30.2,25.9,29.86,SSW,201,2.6,4.6,84,0.00,OVC,,0.00,WeatherDisplay:10.37,2013-02-24 08:06:00,
2013-02-24 03:11:00,30.2,25.9,29.86,SSW,195,4.1,5.0,84,0.00,OVC,,0.00,WeatherDisplay:10.37,2013-02-24 08:11:00,
2013-02-24 03:16:00,30.2,25.9,29.85,SSW,207,2.4,3.5,84,0.00,OVC,,0.00,WeatherDisplay:10.37,2013-02-24 08:16:00,
2013-02-24 03:21:00,30.2,25.9,29.86,South,188,2.8,4.6,84,0.00,OVC,,0.00,WeatherDisplay:10.37,2013-02-24 08:21:00,
2013-02-24 03:26:00,30.2,25.9,29.85,SW,231,1.6,3.5,84,0.00,OVC,,0.00,WeatherDisplay:10.37,2013-02-24 08:26:00,
2013-02-24 03:31:00,30.2,25.9,29.85,SSW,198,2.6,3.5,84,0.00,OVC,,0.00,WeatherDisplay:10.37,2013-02-24 08:31:00,
2013-02-24 03:36:00,30.1,25.6,29.86,SW,214,3.4,3.5,83,0.00,OVC,,0.00,WeatherDisplay:10.37,2013-02-24 08:36:00,
2013-02-24 03:41:00,30.2,25.7,29.86,SW,218,3.0,3.5,83,0.00,OVC,,0.00,WeatherDisplay:10.37,2013-02-24 08:41:00,
2013-02-24 03:46:00,30.2,25.7,29.86,SW,225,3.6,4.0,83,0.00,OVC,,0.00,WeatherDisplay:10.37,2013-02-24 08:46:00,
2013-02-24 03:51:00,30.2,25.4,29.86,SSW,205,3.2,4.6,82,0.00,OVC,,0.00,WeatherDisplay:10.37,2013-02-24 08:51:00,
2013-02-24 03:56:00,30.2,25.7,29.86,SSW,203,3.8,4.6,83,0.00,OVC,,0.00,WeatherDisplay:10.37,2013-02-24 08:56:00,
2013-02-24 04:01:00,30.2,25.7,29.86,SSW,200,1.7,3.5,83,0.00,OVC,,0.00,WeatherDisplay:10.37,2013-02-24 09:01:00,
2013-02-24 04:06:00,30.2,25.7,29.85,SSW,212,3.4,4.0,83,0.00,OVC,,0.00,WeatherDisplay:10.37,2013-02-24 09:06:00,
2013-02-24 04:11:00,30.2,25.7,29.85,SSW,204,4.4,6.9,83,0.00,OVC,,0.00,WeatherDisplay:10.37,2013-02-24 09:11:00,
2013-02-24 04:16:00,30.2,25.4,29.85,SSW,210,2.4,4.0,82,0.00,OVC,,0.00,WeatherDisplay:10.37,2013-02-24 09:16:00,
2013-02-24 04:21:00,30.2,25.4,29.85,SSW,211,4.2,6.0,82,0.00,OVC,,0.00,WeatherDisplay:10.37,2013-02-24 09:21:00,
2013-02-24 04:26:00,30.2,25.1,29.85,SSW,213,5.8,6.0,81,0.00,OVC,,0.00,WeatherDisplay:10.37,2013-02-24 09:26:00,
2013-02-24 04:31:00,30.2,25.1,29.85,SSW,211,5.7,8.1,81,0.00,OVC,,0.00,WeatherDisplay:10.37,2013-02-24 09:31:00,
2013-02-24 04:36:00,30.1,25.0,29.85,SW,219,5.1,6.9,81,0.00,OVC,,0.00,WeatherDisplay:10.37,2013-02-24 09:36:00,
2013-02-24 04:41:00,30.1,25.0,29.85,SSW,209,7.4,13.8,81,0.00,OVC,,0.00,WeatherDisplay:10.37,2013-02-24 09:41:00,
2013-02-24 04:46:00,30.1,25.0,29.86,SW,215,6.2,10.4,81,0.00,-SN,,0.00,WeatherDisplay:10.37,2013-02-24 09:46:00,
2013-02-24 04:51:00,30.0,24.9,29.85,SW,226,5.1,9.2,81,0.00,-SN,,0.00,WeatherDisplay:10.37,2013-02-24 09:51:00,
2013-02-24 04:56:00,30.0,24.9,29.86,SSW,211,8.8,11.0,81,0.00,-SN,,0.00,WeatherDisplay:10.37,2013-02-24 09:56:00,
2013-02-24 05:01:00,30.0,25.2,29.86,SSW,212,4.9,11.5,82,0.00,-SN,,0.00,WeatherDisplay:10.37,2013-02-24 10:01:00,
2013-02-24 05:06:00,30.0,25.2,29.86,SW,219,6.8,10.4,82,0.00,-SN,,0.00,WeatherDisplay:10.37,2013-02-24 10:06:00,
2013-02-24 05:12:00,29.8,25.3,29.86,WSW,249,5.9,6.9,83,0.00,-SN,,0.00,WeatherDisplay:10.37,2013-02-24 10:12:00,
2013-02-24 05:16:00,29.7,25.2,29.86,WSW,240,4.4,5.8,83,0.00,-SN,,0.00,WeatherDisplay:10.37,2013-02-24 10:16:00,
2013-02-24 05:22:00,29.7,25.2,29.86,SW,228,5.4,9.2,83,0.00,-SN,,0.00,WeatherDisplay:10.37,2013-02-24 10:22:00,
2013-02-24 05:27:00,29.7,25.5,29.86,SW,221,7.2,10.0,84,0.00,-SN,,0.00,WeatherDisplay:10.37,2013-02-24 10:27:00,
2013-02-24 05:32:00,29.7,25.5,29.86,WSW,248,6.7,10.4,84,0.00,-SN,,0.00,WeatherDisplay:10.37,2013-02-24 10:32:00,
2013-02-24 05:37:00,29.6,25.1,29.86,SSW,201,8.3,11.5,83,0.00,-SN,,0.00,WeatherDisplay:10.37,2013-02-24 10:37:00,
2013-02-24 05:42:00,29.6,25.1,29.86,SW,222,6.9,8.1,83,0.00,-SN,,0.00,WeatherDisplay:10.37,2013-02-24 10:42:00,
2013-02-24 05:47:00,29.6,25.1,29.86,SW,233,5.1,6.9,83,0.00,-SN,,0.00,WeatherDisplay:10.37,2013-02-24 10:47:00,
2013-02-24 05:52:00,29.6,25.1,29.86,SW,219,6.6,10.4,83,0.00,-SN,,0.00,WeatherDisplay:10.37,2013-02-24 10:52:00,
2013-02-24 05:57:00,29.6,25.1,29.87,SW,219,7.3,9.2,83,0.00,-SN,,0.00,WeatherDisplay:10.37,2013-02-24 10:57:00,
2013-02-24 06:02:00,29.5,25.0,29.86,SW,219,6.8,9.2,83,0.00,-SN,,0.00,WeatherDisplay:10.37,2013-02-24 11:02:00,
2013-02-24 06:07:00,29.5,25.0,29.86,SW,225,7.3,11.5,83,0.00,-SN,,0.00,WeatherDisplay:10.37,2013-02-24 11:07:00,
2013-02-24 06:12:00,29.5,24.7,29.86,SSW,212,7.0,9.2,82,0.00,-SN,,0.00,WeatherDisplay:10.37,2013-02-24 11:12:00,
2013-02-24 06:17:00,29.5,25.0,29.87,SW,236,6.1,8.1,83,0.00,-SN,,0.00,WeatherDisplay:10.37,2013-02-24 11:17:00,
2013-02-24 06:22:00,29.4,24.9,29.86,SW,232,5.1,8.1,83,0.00,-SN,,0.00,WeatherDisplay:10.37,2013-02-24 11:22:00,
2013-02-24 06:27:00,29.4,24.9,29.87,SW,224,7.5,10.4,83,0.00,-SN,,0.00,WeatherDisplay:10.37,2013-02-24 11:27:00,
2013-02-24 06:32:00,29.3,24.8,29.87,SW,226,5.6,8.1,83,0.00,-SN,,0.00,WeatherDisplay:10.37,2013-02-24 11:32:00,
2013-02-24 06:37:00,29.3,24.8,29.87,SW,221,7.1,8.1,83,0.00,-SN,,0.00,WeatherDisplay:10.37,2013-02-24 11:37:00,
2013-02-24 06:42:00,29.3,24.8,29.87,WSW,240,5.5,7.0,83,0.00,-SN,,0.00,WeatherDisplay:10.37,2013-02-24 11:42:00,
2013-02-24 06:47:00,29.3,24.8,29.87,SSW,210,4.6,6.0,83,0.00,-SN,,0.00,WeatherDisplay:10.37,2013-02-24 11:47:00,
2013-02-24 06:52:00,29.3,24.8,29.87,WSW,251,7.1,11.5,83,0.00,-SN,,0.00,WeatherDisplay:10.37,2013-02-24 11:52:00,
2013-02-24 06:57:00,29.3,24.8,29.87,SW,222,6.4,8.1,83,0.00,-SN,,0.00,WeatherDisplay:10.37,2013-02-24 11:57:00,
2013-02-24 07:02:00,29.2,24.7,29.87,SW,225,8.2,10.4,83,0.00,-SN,,0.00,WeatherDisplay:10.37,2013-02-24 12:02:00,
2013-02-24 07:07:00,29.2,24.7,29.87,SW,236,6.7,9.2,83,0.00,-SN,,0.00,WeatherDisplay:10.37,2013-02-24 12:07:00,
2013-02-24 07:12:00,29.2,24.7,29.87,SSW,207,4.2,6.9,83,0.00,-SN,,0.00,WeatherDisplay:10.37,2013-02-24 12:12:00,
2013-02-24 07:17:00,29.2,24.7,29.87,WSW,249,5.0,7.0,83,0.00,-SN,,0.00,WeatherDisplay:10.37,2013-02-24 12:17:00,
2013-02-24 07:22:00,29.2,24.7,29.87,SW,215,7.1,9.2,83,0.00,-SN,,0.00,WeatherDisplay:10.37,2013-02-24 12:22:00,
2013-02-24 07:27:00,29.2,25.0,29.87,SW,229,6.1,6.9,84,0.00,-SN,,0.00,WeatherDisplay:10.37,2013-02-24 12:27:00,
2013-02-24 07:32:00,29.2,25.0,29.87,WSW,238,4.8,6.0,84,0.00,-SN,,0.00,WeatherDisplay:10.37,2013-02-24 12:32:00,
2013-02-24 07:37:00,29.1,24.9,29.87,SW,233,5.5,8.1,84,0.00,-SN,,0.00,WeatherDisplay:10.37,2013-02-24 12:37:00,
2013-02-24 07:42:00,29.2,25.0,29.87,SW,219,6.0,7.0,84,0.00,-SN,,0.00,WeatherDisplay:10.37,2013-02-24 12:42:00,
2013-02-24 07:47:00,29.1,24.9,29.87,SSW,198,7.0,10.4,84,0.00,-SN,,0.00,WeatherDisplay:10.37,2013-02-24 12:47:00,
2013-02-24 07:52:00,29.1,25.2,29.87,SSW,212,7.4,9.2,85,0.00,-SN,,0.00,WeatherDisplay:10.37,2013-02-24 12:52:00,
2013-02-24 07:57:00,29.1,25.2,29.87,SW,231,6.2,8.1,85,0.00,-SN,,0.00,WeatherDisplay:10.37,2013-02-24 12:57:00,
2013-02-24 08:02:00,29.1,25.2,29.88,WSW,243,7.5,9.2,85,0.00,-SN,,0.00,WeatherDisplay:10.37,2013-02-24 13:02:00,
2013-02-24 08:07:00,29.1,25.4,29.88,SW,226,6.4,9.2,86,0.00,-SN,,0.00,WeatherDisplay:10.37,2013-02-24 13:07:00,
2013-02-24 08:12:00,29.1,25.4,29.88,SSW,210,5.9,6.9,86,0.00,-SN,,0.00,WeatherDisplay:10.37,2013-02-24 13:12:00,
2013-02-24 08:17:00,29.0,25.3,29.88,SW,232,7.2,9.0,86,0.00,-SN,,0.00,WeatherDisplay:10.37,2013-02-24 13:17:00,
2013-02-24 08:22:00,29.0,25.6,29.88,SW,226,11.2,13.8,87,0.00,-SN,,0.00,WeatherDisplay:10.37,2013-02-24 13:22:00,
2013-02-24 08:27:00,28.8,25.4,29.88,SW,232,11.6,13.8,87,0.00,-SN,,0.00,WeatherDisplay:10.37,2013-02-24 13:27:00,
2013-02-24 08:32:00,28.7,25.6,29.88,WSW,240,12.3,16.1,88,0.00,-SN,,0.00,WeatherDisplay:10.37,2013-02-24 13:32:00,
2013-02-24 08:37:00,28.6,25.8,29.88,SW,222,7.9,11.5,89,0.00,-SN,,0.00,WeatherDisplay:10.37,2013-02-24 13:37:00,
2013-02-24 08:42:00,28.5,25.7,29.89,WSW,257,6.9,8.1,89,0.00,-SN,,0.00,WeatherDisplay:10.37,2013-02-24 13:42:00,
2013-02-24 08:47:00,28.5,25.9,29.89,WSW,239,8.1,11.5,90,0.00,-SN,,0.00,WeatherDisplay:10.37,2013-02-24 13:47:00,
2013-02-24 08:52:00,28.5,25.9,29.89,SW,217,8.5,11.5,90,0.00,-SN,,0.00,WeatherDisplay:10.37,2013-02-24 13:52:00,
2013-02-24 08:57:00,28.6,26.3,29.89,SW,225,11.0,11.5,91,0.00,-SN,,0.00,WeatherDisplay:10.37,2013-02-24 13:57:00,
2013-02-24 09:02:00,28.5,25.9,29.89,WSW,239,11.6,13.8,90,0.00,-SN,,0.00,WeatherDisplay:10.37,2013-02-24 14:02:00,
2013-02-24 09:07:00,28.5,25.9,29.89,West,267,11.0,15.0,90,0.00,-SN,,0.00,WeatherDisplay:10.37,2013-02-24 14:07:00,
2013-02-24 09:12:00,28.6,26.0,29.89,WSW,249,9.6,15.0,90,0.00,-SN,,0.00,WeatherDisplay:10.37,2013-02-24 14:12:00,
2013-02-24 09:17:00,28.6,26.0,29.89,SW,235,10.5,12.7,90,0.00,-SN,,0.00,WeatherDisplay:10.37,2013-02-24 14:17:00,
2013-02-24 09:22:00,28.8,26.2,29.89,WSW,248,12.6,16.0,90,0.00,-SN,,0.00,WeatherDisplay:10.37,2013-02-24 14:22:00,
2013-02-24 09:27:00,28.8,26.2,29.89,South,176,8.4,12.7,90,0.00,-SN,,0.00,WeatherDisplay:10.37,2013-02-24 14:27:00,
2013-02-24 09:32:00,28.9,25.8,29.89,SW,232,12.0,14.0,88,0.00,-SN,,0.00,WeatherDisplay:10.37,2013-02-24 14:32:00,
2013-02-24 09:37:00,29.0,26.2,29.89,WSW,239,11.7,15.0,89,0.00,-SN,,0.00,WeatherDisplay:10.37,2013-02-24 14:37:00,
2013-02-24 09:42:00,29.1,26.0,29.89,WSW,250,10.9,16.1,88,0.00,-SN,,0.00,WeatherDisplay:10.37,2013-02-24 14:42:00,
2013-02-24 09:47:00,29.1,25.7,29.89,WSW,249,12.0,18.4,87,0.00,-SN,,0.00,WeatherDisplay:10.37,2013-02-24 14:47:00,
2013-02-24 09:52:00,29.2,25.8,29.89,SSW,210,13.6,19.6,87,0.00,-SN,,0.00,WeatherDisplay:10.37,2013-02-24 14:52:00,
2013-02-24 09:57:00,29.4,26.0,29.89,WSW,256,8.1,11.5,87,0.00,-SN,,0.00,WeatherDisplay:10.37,2013-02-24 14:57:00,
2013-02-24 10:02:00,29.5,25.8,29.90,WSW,250,9.0,15.0,86,0.00,-SN,,0.00,WeatherDisplay:10.37,2013-02-24 15:02:00,
2013-02-24 10:07:00,29.5,25.5,29.90,WSW,243,10.3,16.1,85,0.00,-SN,,0.00,WeatherDisplay:10.37,2013-02-24 15:07:00,
2013-02-24 10:12:00,29.6,25.9,29.90,WNW,283,9.4,9.4,86,0.00,-SN,,0.00,WeatherDisplay:10.37,2013-02-24 15:12:00,
2013-02-24 10:17:00,29.7,25.5,29.90,WSW,249,9.5,13.8,84,0.00,-SN,,0.00,WeatherDisplay:10.37,2013-02-24 15:17:00,
2013-02-24 10:22:00,29.7,25.5,29.90,West,263,8.8,11.5,84,0.00,-SN,,0.00,WeatherDisplay:10.37,2013-02-24 15:22:00,
2013-02-24 10:27:00,29.7,25.7,29.90,WSW,252,9.5,20.0,85,0.00,-SN,,0.00,WeatherDisplay:10.37,2013-02-24 15:27:00,
2013-02-24 10:32:00,29.6,25.4,29.90,West,270,10.2,17.3,84,0.00,-SN,,0.00,WeatherDisplay:10.37,2013-02-24 15:32:00,
2013-02-24 10:37:00,29.6,25.4,29.91,SW,232,11.9,16.1,84,0.00,-SN,,0.00,WeatherDisplay:10.37,2013-02-24 15:37:00,
2013-02-24 10:42:00,29.6,25.1,29.91,West,262,10.6,15.0,83,0.00,-SN,,0.00,WeatherDisplay:10.37,2013-02-24 15:42:00,
2013-02-24 10:47:00,29.7,24.9,29.91,WSW,257,6.0,12.7,82,0.00,-SN,,0.00,WeatherDisplay:10.37,2013-02-24 15:47:00,
2013-02-24 10:52:00,30.0,25.5,29.91,West,276,8.1,11.5,83,0.00,-SN,,0.00,WeatherDisplay:10.37,2013-02-24 15:52:00,
2013-02-24 10:57:00,30.1,25.3,29.90,NNW,330,13.0,15.0,82,0.00,-SN,,0.00,WeatherDisplay:10.37,2013-02-24 15:57:00,
2013-02-24 11:02:00,30.0,25.2,29.91,WSW,242,13.3,17.3,82,0.00,BKN,,0.00,WeatherDisplay:10.37,2013-02-24 16:02:00,
2013-02-24 11:07:00,30.1,25.0,29.91,West,269,14.2,15.0,81,0.00,BKN,,0.00,WeatherDisplay:10.37,2013-02-24 16:07:00,
2013-02-24 11:12:00,30.1,25.0,29.91,WSW,257,8.2,15.0,81,0.00,BKN,,0.00,WeatherDisplay:10.37,2013-02-24 16:12:00,
2013-02-24 11:17:00,30.2,24.8,29.91,SW,233,10.2,11.5,80,0.00,BKN,,0.00,WeatherDisplay:10.37,2013-02-24 16:17:00,
2013-02-24 11:22:00,30.4,24.7,29.91,WNW,297,11.8,13.8,79,0.00,BKN,,0.00,WeatherDisplay:10.37,2013-02-24 16:22:00,
2013-02-24 11:27:00,30.4,25.0,29.91,West,272,6.7,11.5,80,0.00,BKN,,0.00,WeatherDisplay:10.37,2013-02-24 16:27:00,
2013-02-24 11:32:00,30.7,25.9,29.91,SW,224,9.6,13.8,82,0.00,BKN,,0.00,WeatherDisplay:10.37,2013-02-24 16:32:00,
2013-02-24 11:37:00,31.0,25.9,29.92,WNW,286,9.3,15.0,81,0.00,BKN,,0.00,WeatherDisplay:10.37,2013-02-24 16:37:00,
2013-02-24 11:42:00,31.1,25.3,29.91,WSW,238,14.8,21.9,79,0.00,BKN,,0.00,WeatherDisplay:10.37,2013-02-24 16:42:00,
2013-02-24 11:48:00,30.9,24.8,29.91,WSW,257,12.1,16.1,78,0.00,BKN,,0.00,WeatherDisplay:10.37,2013-02-24 16:48:00,
2013-02-24 11:53:00,31.0,24.6,29.92,WSW,252,9.8,15.0,77,0.00,BKN,,0.00,WeatherDisplay:10.37,2013-02-24 16:53:00,
2013-02-24 11:58:00,31.1,24.7,29.91,WNW,287,7.6,10.4,77,0.00,BKN,,0.00,WeatherDisplay:10.37,2013-02-24 16:58:00,
2013-02-24 12:03:00,31.2,24.2,29.91,SW,232,10.6,16.1,75,0.00,-SN,,0.00,WeatherDisplay:10.37,2013-02-24 17:03:00,
2013-02-24 12:08:00,31.2,24.5,29.92,WSW,253,8.2,11.5,76,0.00,-SN,,0.00,WeatherDisplay:10.37,2013-02-24 17:08:00,
2013-02-24 12:13:00,31.1,24.4,29.91,WSW,238,13.7,19.6,76,0.00,-SN,,0.00,WeatherDisplay:10.37,2013-02-24 17:13:00,
2013-02-24 12:18:00,31.1,24.1,29.92,WSW,238,12.2,15.0,75,0.00,-SN,,0.00,WeatherDisplay:10.37,2013-02-24 17:18:00,
2013-02-24 12:23:00,30.9,24.2,29.92,West,274,10.8,15.0,76,0.00,-SN,,0.00,WeatherDisplay:10.37,2013-02-24 17:23:00,
2013-02-24 12:28:00,30.9,24.5,29.92,WSW,257,14.6,19.6,77,0.00,-SN,,0.00,WeatherDisplay:10.37,2013-02-24 17:28:00,
2013-02-24 12:33:00,30.9,24.8,29.92,WSW,245,10.4,12.7,78,0.00,-SN,,0.00,WeatherDisplay:10.37,2013-02-24 17:33:00,
2013-02-24 12:38:00,31.0,24.6,29.92,WSW,245,7.2,13.0,77,0.00,-SN,,0.00,WeatherDisplay:10.37,2013-02-24 17:38:00,
2013-02-24 12:43:00,31.0,25.6,29.92,SW,235,13.3,17.3,80,0.00,-SN,,0.00,WeatherDisplay:10.37,2013-02-24 17:43:00,
2013-02-24 12:48:00,30.8,25.7,29.92,SW,229,9.8,12.7,81,0.00,-SN,,0.00,WeatherDisplay:10.37,2013-02-24 17:48:00,
2013-02-24 12:53:00,30.6,25.8,29.92,WSW,248,11.4,13.8,82,0.00,-SN,,0.00,WeatherDisplay:10.37,2013-02-24 17:53:00,
2013-02-24 12:58:00,30.9,26.6,29.92,WSW,239,10.5,15.0,84,0.00,-SN,,0.00,WeatherDisplay:10.37,2013-02-24 17:58:00,
2013-02-24 13:03:00,31.0,26.1,29.92,WSW,238,11.8,15.0,82,0.00,-SN,,0.00,WeatherDisplay:10.37,2013-02-24 18:03:00,
2013-02-24 13:08:00,31.0,26.1,29.92,SW,219,9.1,13.8,82,0.00,-SN,,0.00,WeatherDisplay:10.37,2013-02-24 18:08:00,
2013-02-24 13:13:00,31.1,25.7,29.92,SW,236,4.3,12.7,80,0.00,-SN,,0.00,WeatherDisplay:10.37,2013-02-24 18:13:00,
2013-02-24 13:18:00,31.5,25.7,29.92,WSW,240,8.1,11.5,79,0.00,-SN,,0.00,WeatherDisplay:10.37,2013-02-24 18:18:00,
2013-02-24 13:23:00,31.8,26.0,29.92,WSW,238,5.9,10.4,79,0.00,-SN,,0.00,WeatherDisplay:10.37,2013-02-24 18:23:00,
2013-02-24 13:28:00,31.5,25.7,29.92,WSW,238,12.3,15.0,79,0.00,-SN,,0.00,WeatherDisplay:10.37,2013-02-24 18:28:00,
2013-02-24 13:33:00,31.2,25.7,29.92,WSW,257,7.2,11.5,80,0.00,-SN,,0.00,WeatherDisplay:10.37,2013-02-24 18:33:00,
2013-02-24 13:38:00,31.3,25.5,29.92,WNW,295,9.5,12.7,79,0.00,-SN,,0.00,WeatherDisplay:10.37,2013-02-24 18:38:00,
2013-02-24 13:43:00,31.4,25.6,29.92,WSW,252,11.0,16.1,79,0.00,-SN,,0.00,WeatherDisplay:10.37,2013-02-24 18:43:00,
2013-02-24 13:48:00,31.4,26.2,29.92,SW,219,11.3,18.0,81,0.00,-SN,,0.00,WeatherDisplay:10.37,2013-02-24 18:48:00,
2013-02-24 13:53:00,31.4,26.2,29.92,WSW,255,11.4,13.8,81,0.00,-SN,,0.00,WeatherDisplay:10.37,2013-02-24 18:53:00,
2013-02-24 13:58:00,31.5,26.3,29.92,WNW,286,12.7,15.0,81,0.00,-SN,,0.00,WeatherDisplay:10.37,2013-02-24 18:58:00,
2013-02-24 14:03:00,31.6,26.4,29.92,SW,226,9.8,15.0,81,0.00,-SN,,0.00,WeatherDisplay:10.37,2013-02-24 19:03:00,
2013-02-24 14:08:00,31.6,26.7,29.92,SW,232,14.3,17.3,82,0.00,-SN,,0.00,WeatherDisplay:10.37,2013-02-24 19:08:00,
2013-02-24 14:13:00,31.6,26.4,29.92,WSW,243,10.7,12.7,81,0.00,-SN,,0.00,WeatherDisplay:10.37,2013-02-24 19:13:00,
2013-02-24 14:18:00,31.5,26.6,29.93,NW,315,7.6,12.7,82,0.00,-SN,,0.00,WeatherDisplay:10.37,2013-02-24 19:18:00,
2013-02-24 14:23:00,31.3,26.4,29.93,South,177,10.2,17.3,82,0.00,-SN,,0.00,WeatherDisplay:10.37,2013-02-24 19:23:00,
2013-02-24 14:28:00,31.2,26.6,29.93,WSW,256,8.9,14.0,83,0.00,-SN,,0.00,WeatherDisplay:10.37,2013-02-24 19:28:00,
2013-02-24 14:33:00,30.8,26.2,29.93,SSW,203,11.3,13.8,83,0.00,-SN,,0.00,WeatherDisplay:10.37,2013-02-24 19:33:00,
2013-02-24 14:38:00,30.8,26.2,29.93,WNW,290,6.5,11.5,83,0.00,-SN,,0.00,WeatherDisplay:10.37,2013-02-24 19:38:00,
2013-02-24 14:43:00,30.7,26.1,29.93,SW,235,13.4,18.4,83,0.00,-SN,,0.00,WeatherDisplay:10.37,2013-02-24 19:43:00,
2013-02-24 14:48:00,30.6,26.3,29.93,WSW,250,12.7,17.3,84,0.00,-SN,,0.00,WeatherDisplay:10.37,2013-02-24 19:48:00,
2013-02-24 14:53:00,30.6,26.3,29.93,WSW,239,11.2,16.1,84,0.00,-SN,,0.00,WeatherDisplay:10.37,2013-02-24 19:53:00,
2013-02-24 14:58:00,30.6,26.6,29.94,SW,226,9.9,13.8,85,0.00,-SN,,0.00,WeatherDisplay:10.37,2013-02-24 19:58:00,
2013-02-24 15:03:00,30.5,26.2,29.94,WSW,256,10.3,16.1,84,0.00,-SN,,0.00,WeatherDisplay:10.37,2013-02-24 20:03:00,
2013-02-24 15:08:00,30.5,26.2,29.94,SW,225,9.2,15.0,84,0.00,-SN,,0.00,WeatherDisplay:10.37,2013-02-24 20:08:00,
2013-02-24 15:13:00,30.6,26.3,29.94,SW,217,10.4,11.5,84,0.00,-SN,,0.00,WeatherDisplay:10.37,2013-02-24 20:13:00,
2013-02-24 15:18:00,30.7,26.1,29.94,WSW,245,11.3,12.7,83,0.00,-SN,,0.00,WeatherDisplay:10.37,2013-02-24 20:18:00,
2013-02-24 15:23:00,30.7,26.4,29.94,SW,218,11.2,13.0,84,0.00,-SN,,0.00,WeatherDisplay:10.37,2013-02-24 20:23:00,
2013-02-24 15:28:00,30.8,26.0,29.94,WSW,248,12.8,15.0,82,0.00,-SN,,0.00,WeatherDisplay:10.37,2013-02-24 20:28:00,
2013-02-24 15:33:00,30.7,25.9,29.94,WSW,243,11.0,15.0,82,0.00,-SN,,0.00,WeatherDisplay:10.37,2013-02-24 20:33:00,
2013-02-24 15:38:00,30.7,26.1,29.95,WSW,241,9.8,13.8,83,0.00,-SN,,0.00,WeatherDisplay:10.37,2013-02-24 20:38:00,
2013-02-24 15:43:00,30.7,26.1,29.95,SW,231,7.3,9.2,83,0.00,-SN,,0.00,WeatherDisplay:10.37,2013-02-24 20:43:00,
2013-02-24 15:48:00,30.8,26.2,29.95,West,269,9.2,11.5,83,0.00,-SN,,0.00,WeatherDisplay:10.37,2013-02-24 20:48:00,
2013-02-24 15:53:00,30.9,26.3,29.95,WSW,238,10.0,12.7,83,0.00,-SN,,0.00,WeatherDisplay:10.37,2013-02-24 20:53:00,
2013-02-24 15:58:00,31.0,26.4,29.95,SW,217,9.9,12.7,83,0.00,-SN,,0.00,WeatherDisplay:10.37,2013-02-24 20:58:00,
2013-02-24 16:03:00,31.1,26.2,29.95,WSW,246,9.8,12.7,82,0.00,OVC,,0.00,WeatherDisplay:10.37,2013-02-24 21:03:00,
2013-02-24 16:08:00,31.2,26.3,29.95,WSW,249,10.6,16.0,82,0.00,OVC,,0.00,WeatherDisplay:10.37,2013-02-24 21:08:00,
2013-02-24 16:13:00,31.2,26.0,29.95,WSW,248,11.2,17.3,81,0.00,OVC,,0.00,WeatherDisplay:10.37,2013-02-24 21:13:00,
2013-02-24 16:18:00,31.3,25.8,29.95,WSW,252,11.8,16.1,80,0.00,OVC,,0.00,WeatherDisplay:10.37,2013-02-24 21:18:00,
2013-02-24 16:23:00,31.4,26.2,29.96,SW,236,11.6,18.4,81,0.00,OVC,,0.00,WeatherDisplay:10.37,2013-02-24 21:23:00,
2013-02-24 16:28:00,31.4,26.2,29.96,WSW,249,11.1,16.1,81,0.00,OVC,,0.00,WeatherDisplay:10.37,2013-02-24 21:28:00,
2013-02-24 16:33:00,31.5,26.3,29.96,WSW,238,14.2,19.6,81,0.00,OVC,,0.00,WeatherDisplay:10.37,2013-02-24 21:33:00,
2013-02-24 16:38:00,31.6,26.4,29.96,SW,214,11.7,13.8,81,0.00,OVC,,0.00,WeatherDisplay:10.37,2013-02-24 21:38:00,
2013-02-24 16:43:00,31.6,26.4,29.96,WSW,245,15.5,18.4,81,0.00,OVC,,0.00,WeatherDisplay:10.37,2013-02-24 21:43:00,
2013-02-24 16:48:00,31.7,26.2,29.97,WNW,283,11.6,16.1,80,0.00,OVC,,0.00,WeatherDisplay:10.37,2013-02-24 21:48:00,
2013-02-24 16:53:00,31.7,26.2,29.97,West,276,10.4,17.3,80,0.00,OVC,,0.00,WeatherDisplay:10.37,2013-02-24 21:53:00,
2013-02-24 16:58:00,31.6,26.4,29.97,SW,219,6.9,11.5,81,0.00,OVC,,0.00,WeatherDisplay:10.37,2013-02-24 21:58:00,
2013-02-24 17:03:00,31.7,26.5,29.98,WSW,256,6.6,11.5,81,0.00,OVC,,0.00,WeatherDisplay:10.37,2013-02-24 22:03:00,
2013-02-24 17:09:00,31.6,26.4,29.98,WSW,255,8.1,11.5,81,0.00,OVC,,0.00,WeatherDisplay:10.37,2013-02-24 22:09:00,
2013-02-24 17:14:00,31.7,26.5,29.99,WSW,253,5.5,6.9,81,0.00,OVC,,0.00,WeatherDisplay:10.37,2013-02-24 22:14:00,
2013-02-24 17:19:00,31.6,26.7,29.99,WSW,242,6.1,8.1,82,0.00,OVC,,0.00,WeatherDisplay:10.37,2013-02-24 22:19:00,
2013-02-24 17:24:00,31.4,27.1,29.99,WNW,293,5.6,6.9,84,0.00,OVC,,0.00,WeatherDisplay:10.37,2013-02-24 22:24:00,
2013-02-24 17:29:00,31.1,27.1,30.00,WNW,293,4.9,6.9,85,0.00,OVC,,0.00,WeatherDisplay:10.37,2013-02-24 22:29:00,
2013-02-24 17:34:00,31.0,27.3,30.00,WSW,247,3.7,5.8,86,0.00,OVC,,0.00,WeatherDisplay:10.37,2013-02-24 22:34:00,
2013-02-24 17:39:00,31.0,27.3,29.99,WSW,253,5.3,9.2,86,0.00,OVC,,0.00,WeatherDisplay:10.37,2013-02-24 22:39:00,
2013-02-24 17:44:00,31.1,27.4,30.00,WSW,255,5.9,8.1,86,0.00,OVC,,0.00,WeatherDisplay:10.37,2013-02-24 22:44:00,
2013-02-24 17:49:00,31.1,27.4,30.00,WSW,253,5.1,6.9,86,0.00,OVC,,0.00,WeatherDisplay:10.37,2013-02-24 22:49:00,
2013-02-24 17:54:00,31.2,27.2,30.00,West,265,8.2,12.7,85,0.00,OVC,,0.00,WeatherDisplay:10.37,2013-02-24 22:54:00,
2013-02-24 17:59:00,31.4,27.4,30.00,West,277,6.7,10.4,85,0.00,OVC,,0.00,WeatherDisplay:10.37,2013-02-24 22:59:00,
2013-02-24 18:04:00,31.4,27.4,30.00,WSW,246,8.7,13.8,85,0.00,-SN,,0.00,WeatherDisplay:10.37,2013-02-24 23:04:00,
2013-02-24 18:09:00,31.5,27.5,30.01,WSW,247,5.1,6.9,85,0.00,-SN,,0.00,WeatherDisplay:10.37,2013-02-24 23:09:00,
2013-02-24 18:14:00,31.5,27.5,30.01,West,270,5.9,10.0,85,0.00,-SN,,0.00,WeatherDisplay:10.37,2013-02-24 23:14:00,
2013-02-24 18:19:00,31.6,27.3,30.01,West,259,7.8,13.8,84,0.00,-SN,,0.00,WeatherDisplay:10.37,2013-02-24 23:19:00,
2013-02-24 18:24:00,31.7,27.7,30.01,WNW,288,5.5,9.2,85,0.00,-SN,,0.00,WeatherDisplay:10.37,2013-02-24 23:24:00,
2013-02-24 18:29:00,31.7,27.7,30.02,WSW,242,5.8,8.1,85,0.00,-SN,,0.00,WeatherDisplay:10.37,2013-02-24 23:29:00,
2013-02-24 18:34:00,31.7,27.4,30.02,WNW,285,5.5,9.2,84,0.00,-SN,,0.00,WeatherDisplay:10.37,2013-02-24 23:34:00,
2013-02-24 18:39:00,31.7,27.4,30.02,WSW,240,4.7,6.9,84,0.00,-SN,,0.00,WeatherDisplay:10.37,2013-02-24 23:39:00,
2013-02-24 18:44:00,31.7,27.7,30.02,WSW,254,7.0,11.5,85,0.00,-SN,,0.00,WeatherDisplay:10.37,2013-02-24 23:44:00,
2013-02-24 18:49:00,31.6,27.6,30.03,WSW,250,5.4,6.9,85,0.00,-SN,,0.00,WeatherDisplay:10.37,2013-02-24 23:49:00,
2013-02-24 18:54:00,31.6,27.6,30.03,SW,231,6.9,9.2,85,0.00,-SN,,0.00,WeatherDisplay:10.37,2013-02-24 23:54:00,
2013-02-24 18:59:00,31.5,27.5,30.03,WSW,240,7.6,10.4,85,0.00,-SN,,0.00,WeatherDisplay:10.37,2013-02-24 23:59:00,
2013-02-24 19:04:00,31.5,27.5,30.03,SW,235,7.8,11.5,85,0.00,-SN,,0.00,WeatherDisplay:10.37,2013-02-25 00:04:00,
2013-02-24 19:09:00,31.5,27.2,30.03,WSW,247,8.4,12.7,84,0.00,-SN,,0.00,WeatherDisplay:10.37,2013-02-25 00:09:00,
2013-02-24 19:14:00,31.6,27.3,30.03,West,270,7.9,10.4,84,0.00,-SN,,0.00,WeatherDisplay:10.37,2013-02-25 00:14:00,
2013-02-24 19:19:00,31.6,27.0,30.03,WSW,250,5.1,9.2,83,0.00,-SN,,0.00,WeatherDisplay:10.37,2013-02-25 00:19:00,
2013-02-24 19:24:00,31.7,27.1,30.04,West,278,7.0,13.8,83,0.00,-SN,,0.00,WeatherDisplay:10.37,2013-02-25 00:24:00,
2013-02-24 19:29:00,31.8,27.2,30.04,West,271,6.3,7.0,83,0.00,-SN,,0.00,WeatherDisplay:10.37,2013-02-25 00:29:00,
2013-02-24 19:34:00,31.8,26.9,30.04,WSW,252,7.9,11.0,82,0.00,-SN,,0.00,WeatherDisplay:10.37,2013-02-25 00:34:00,
2013-02-24 19:39:00,31.8,26.9,30.04,WSW,249,5.8,9.2,82,0.00,-SN,,0.00,WeatherDisplay:10.37,2013-02-25 00:39:00,
2013-02-24 19:44:00,31.8,26.9,30.05,WNW,288,7.6,11.5,82,0.00,-SN,,0.00,WeatherDisplay:10.37,2013-02-25 00:44:00,
2013-02-24 19:49:00,31.8,26.9,30.05,WSW,255,7.8,11.5,82,0.00,-SN,,0.00,WeatherDisplay:10.37,2013-02-25 00:49:00,
2013-02-24 19:54:00,31.9,27.0,30.05,West,262,5.4,11.5,82,0.00,-SN,,0.00,WeatherDisplay:10.37,2013-02-25 00:54:00,
2013-02-24 19:59:00,31.9,27.0,30.05,WSW,242,6.9,8.1,82,0.00,-SN,,0.00,WeatherDisplay:10.37,2013-02-25 00:59:00,
2013-02-24 20:04:00,31.9,27.0,30.05,West,263,5.5,11.5,82,0.00,-SN,,0.00,WeatherDisplay:10.37,2013-02-25 01:04:00,
2013-02-24 20:09:00,31.9,27.0,30.06,West,263,7.5,8.1,82,0.00,-SN,,0.00,WeatherDisplay:10.37,2013-02-25 01:09:00,
2013-02-24 20:14:00,32.0,26.8,30.06,West,274,5.3,8.1,81,0.00,-SN,,0.00,WeatherDisplay:10.37,2013-02-25 01:14:00,
2013-02-24 20:19:00,32.0,26.8,30.06,WSW,247,6.9,12.7,81,0.00,-SN,,0.00,WeatherDisplay:10.37,2013-02-25 01:19:00,
2013-02-24 20:24:00,32.0,26.8,30.06,West,259,6.3,7.0,81,0.00,-SN,,0.00,WeatherDisplay:10.37,2013-02-25 01:24:00,
2013-02-24 20:29:00,32.0,26.8,30.06,WSW,242,7.8,13.0,81,0.00,-SN,,0.00,WeatherDisplay:10.37,2013-02-25 01:29:00,
2013-02-24 20:34:00,32.0,26.8,30.07,WNW,293,7.6,13.8,81,0.00,-SN,,0.00,WeatherDisplay:10.37,2013-02-25 01:34:00,
2013-02-24 20:39:00,32.1,26.9,30.07,NNW,329,5.3,11.5,81,0.00,-SN,,0.00,WeatherDisplay:10.37,2013-02-25 01:39:00,
2013-02-24 20:44:00,32.0,27.1,30.07,West,262,7.5,9.2,82,0.00,-SN,,0.00,WeatherDisplay:10.37,2013-02-25 01:44:00,
2013-02-24 20:49:00,31.9,27.0,30.07,WSW,256,6.8,9.2,82,0.00,-SN,,0.00,WeatherDisplay:10.37,2013-02-25 01:49:00,
2013-02-24 20:54:00,31.9,27.0,30.07,WSW,255,8.7,11.5,82,0.00,-SN,,0.00,WeatherDisplay:10.37,2013-02-25 01:54:00,
2013-02-24 20:59:00,31.9,27.0,30.07,West,263,5.8,7.0,82,0.00,-SN,,0.00,WeatherDisplay:10.37,2013-02-25 01:59:00,
2013-02-24 21:04:00,31.8,26.9,30.07,West,266,5.3,10.0,82,0.00,-SN,,0.00,WeatherDisplay:10.37,2013-02-25 02:04:00,
2013-02-24 21:09:00,31.8,26.9,30.07,West,264,6.7,10.4,82,0.00,-SN,,0.00,WeatherDisplay:10.37,2013-02-25 02:09:00,
2013-02-24 21:14:00,31.7,26.8,30.07,West,274,5.5,10.4,82,0.00,-SN,,0.00,WeatherDisplay:10.37,2013-02-25 02:14:00,
2013-02-24 21:19:00,31.7,26.8,30.07,WSW,252,5.7,8.1,82,0.00,-SN,,0.00,WeatherDisplay:10.37,2013-02-25 02:19:00,
2013-02-24 21:24:00,31.7,26.8,30.07,WSW,249,8.5,11.5,82,0.00,-SN,,0.00,WeatherDisplay:10.37,2013-02-25 02:24:00,
2013-02-24 21:29:00,31.7,26.8,30.07,WNW,284,6.1,9.2,82,0.00,-SN,,0.00,WeatherDisplay:10.37,2013-02-25 02:29:00,
2013-02-24 21:34:00,31.6,26.7,30.07,WSW,245,6.9,13.8,82,0.00,-SN,,0.00,WeatherDisplay:10.37,2013-02-25 02:34:00,
2013-02-24 21:39:00,31.6,26.7,30.07,West,259,7.0,12.7,82,0.00,-SN,,0.00,WeatherDisplay:10.37,2013-02-25 02:39:00,
2013-02-24 21:44:00,31.6,26.7,30.07,WNW,285,6.6,11.5,82,0.00,-SN,,0.00,WeatherDisplay:10.37,2013-02-25 02:44:00,
2013-02-24 21:49:00,31.5,26.6,30.07,WSW,253,5.4,8.0,82,0.00,-SN,,0.00,WeatherDisplay:10.37,2013-02-25 02:49:00,
2013-02-24 21:55:00,31.5,26.6,30.07,West,263,6.2,9.2,82,0.00,-SN,,0.00,WeatherDisplay:10.37,2013-02-25 02:55:00,
2013-02-24 22:00:00,31.4,26.5,30.07,West,271,8.1,10.4,82,0.00,-SN,,0.00,WeatherDisplay:10.37,2013-02-25 03:00:00,
2013-02-24 22:05:00,31.4,26.5,30.07,SW,234,7.2,11.5,82,0.00,OVC,,0.00,WeatherDisplay:10.37,2013-02-25 03:05:00,
2013-02-24 22:10:00,31.3,26.4,30.07,WSW,243,8.2,11.0,82,0.00,OVC,,0.00,WeatherDisplay:10.37,2013-02-25 03:10:00,
2013-02-24 22:15:00,31.2,26.3,30.08,SW,217,8.1,11.5,82,0.00,OVC,,0.00,WeatherDisplay:10.37,2013-02-25 03:15:00,
2013-02-24 22:20:00,31.2,26.3,30.08,WSW,250,8.5,11.5,82,0.00,OVC,,0.00,WeatherDisplay:10.37,2013-02-25 03:20:00,
2013-02-24 22:25:00,31.2,26.3,30.08,WSW,246,7.3,11.5,82,0.00,OVC,,0.00,WeatherDisplay:10.37,2013-02-25 03:25:00,
2013-02-24 22:30:00,31.1,26.2,30.08,WSW,255,7.7,9.2,82,0.00,OVC,,0.00,WeatherDisplay:10.37,2013-02-25 03:30:00,
2013-02-24 22:35:00,31.1,26.2,30.07,WSW,243,10.5,13.8,82,0.00,OVC,,0.00,WeatherDisplay:10.37,2013-02-25 03:35:00,
2013-02-24 22:40:00,31.0,26.1,30.07,West,270,7.8,9.2,82,0.00,OVC,,0.00,WeatherDisplay:10.37,2013-02-25 03:40:00,
2013-02-24 22:45:00,31.0,26.1,30.07,West,262,6.7,10.4,82,0.00,OVC,,0.00,WeatherDisplay:10.37,2013-02-25 03:45:00,
2013-02-24 22:50:00,31.0,26.1,30.07,West,259,3.3,9.2,82,0.00,OVC,,0.00,WeatherDisplay:10.37,2013-02-25 03:50:00,
2013-02-24 22:55:00,31.0,26.1,30.07,WNW,290,5.9,7.0,82,0.00,OVC,,0.00,WeatherDisplay:10.37,2013-02-25 03:55:00,
2013-02-24 23:00:00,31.0,26.1,30.07,WSW,238,8.0,10.4,82,0.00,OVC,,0.00,WeatherDisplay:10.37,2013-02-25 04:00:00,
2013-02-24 23:05:00,30.9,26.1,30.07,West,269,7.2,9.2,82,0.00,-SN,,0.00,WeatherDisplay:10.37,2013-02-25 04:05:00,
2013-02-24 23:10:00,30.9,26.1,30.08,WSW,242,6.9,9.2,82,0.00,-SN,,0.00,WeatherDisplay:10.37,2013-02-25 04:10:00,
2013-02-24 23:15:00,30.9,26.1,30.07,WSW,245,9.3,10.4,82,0.00,-SN,,0.00,WeatherDisplay:10.37,2013-02-25 04:15:00,
2013-02-24 23:20:00,30.8,26.0,30.07,WSW,250,10.2,11.5,82,0.00,-SN,,0.00,WeatherDisplay:10.37,2013-02-25 04:20:00,
2013-02-24 23:25:00,30.8,26.0,30.07,West,264,8.1,11.5,82,0.00,-SN,,0.00,WeatherDisplay:10.37,2013-02-25 04:25:00,
2013-02-24 23:30:00,30.7,26.1,30.08,SW,226,9.9,11.5,83,0.00,-SN,,0.00,WeatherDisplay:10.37,2013-02-25 04:30:00,
2013-02-24 23:35:00,30.6,26.1,30.08,SW,232,9.0,11.5,83,0.00,-SN,,0.00,WeatherDisplay:10.37,2013-02-25 04:35:00,
2013-02-24 23:40:00,30.5,26.0,30.07,WSW,257,7.4,10.4,83,0.00,-SN,,0.00,WeatherDisplay:10.37,2013-02-25 04:40:00,
2013-02-24 23:45:00,30.5,26.0,30.08,West,262,9.6,12.0,83,0.00,-SN,,0.00,WeatherDisplay:10.37,2013-02-25 04:45:00,
2013-02-24 23:50:00,30.5,25.7,30.08,WSW,257,8.0,11.5,82,0.00,-SN,,0.00,WeatherDisplay:10.37,2013-02-25 04:50:00,
2013-02-24 23:55:00,30.5,25.7,30.08,WSW,245,10.8,11.5,82,0.00,-SN,,0.00,WeatherDisplay:10.37,2013-02-25 04:55:00,